Snowfall_Accumulation
0.0 0.0 0.0 0.0 0.0 0.0 0.0 0.0 0.0 0.0 0.0 0.0 0.0 0.0 0.0 0.0 0.0 0.0 0.0 nan nan nan nan nan nan nan nan nan nan nan nan nan nan nan nan nan nan nan
0.0 0.0 0.0 0.0 0.0 0.0 0.0 0.0 0.0 0.0 0.0 0.0 0.0 0.0 0.0 0.0 0.0 0.0 0.0 nan nan nan nan nan nan nan nan nan nan nan nan nan nan nan nan nan nan nan
0.0 0.0 0.0 0.0 0.0 0.0 0.0 0.0 0.0 0.0 0.0 0.0 0.0 0.0 0.0 0.0 0.0 0.0 0.0 0.0 0.0 nan nan nan nan nan nan nan nan nan nan nan nan nan nan nan nan nan
0.0 0.0 0.0 0.0 0.0 0.0 0.0 0.0 0.0 0.0 0.0 0.0 0.0 0.0 0.0 0.0 0.0 0.0 0.0 0.0 0.0 nan nan nan nan nan nan nan nan nan nan nan nan nan nan nan nan nan
0.0 0.0 0.0 0.0 0.0 0.0 0.0 0.0 0.0 0.0 0.0 0.0 0.0 0.0 0.0 0.0 0.0 0.0 0.0 0.0 0.0 nan nan nan nan nan nan nan nan nan nan nan nan nan nan nan nan nan
0.0 0.0 0.0 0.0 0.0 0.0 0.0 0.0 0.0 0.0 0.0 0.0 0.0 0.0 0.0 0.0 0.0 0.0 0.0 0.0 0.0 0.0 nan nan nan nan nan nan nan nan nan nan nan nan nan nan nan nan
0.0 0.0 0.0 nan nan nan 0.0 0.0 0.0 0.0 0.0 0.0 0.0 0.0 0.0 0.0 0.0 0.0 0.0 0.0 0.0 0.0 0.0 0.0 0.0 0.0 0.0 nan nan nan nan nan nan nan nan nan nan nan
0.0 0.0 0.0 0.0 0.0 nan nan nan nan 0.0 0.0 0.0 0.0 0.0 0.0 0.0 0.0 0.0 0.0 0.2 0.2 0.0 0.0 0.0 0.0 0.0 0.0 0.0 nan nan nan nan nan nan nan nan nan nan
0.0 0.0 0.0 0.0 nan 0.0 nan nan nan nan nan 0.0 0.0 0.0 0.0 0.0 0.0 0.0 0.0 0.1 0.0 0.0 0.0 0.0 0.0 0.0 0.0 0.0 nan nan nan nan nan nan nan nan nan nan
0.0 0.0 0.0 0.0 0.0 0.0 0.0 0.0 0.0 0.0 0.0 0.0 0.0 0.0 0.0 0.0 0.0 0.0 0.0 0.0 0.0 0.0 0.0 0.3 0.0 0.0 0.0 0.0 nan nan nan nan nan nan nan nan nan nan
0.0 0.0 0.0 0.0 nan nan 0.0 0.0 0.0 0.0 nan nan nan nan nan nan nan 0.0 0.2 0.3 0.2 0.0 0.0 0.1 0.1 0.2 0.1 0.0 0.0 nan nan nan nan nan nan nan nan nan
0.0 0.0 nan 0.0 nan nan 0.0 0.0 0.0 0.0 0.0 0.0 0.0 0.0 nan nan nan 0.0 0.2 0.6 0.6 0.5 0.1 0.5 0.3 0.3 0.8 0.2 0.2 0.0 0.0 nan nan nan nan nan nan 0.0
0.0 0.0 0.0 nan nan nan nan 0.0 0.0 0.0 0.0 0.0 0.0 0.0 0.0 0.0 0.0 0.0 0.0 0.6 1.5 1.0 0.1 0.7 1.4 0.5 0.7 0.6 0.3 0.2 0.1 0.1 0.0 0.1 nan nan nan 0.0
0.0 0.0 0.0 nan nan nan nan nan nan nan 0.0 0.0 0.1 0.3 0.4 0.4 0.4 0.3 0.0 0.1 0.2 0.4 0.1 0.1 4.9 1.2 2.1 1.5 0.8 0.5 0.4 0.3 0.4 0.5 0.4 nan nan nan
0.0 0.0 nan nan nan nan nan nan nan 0.0 0.0 0.3 0.4 0.6 0.6 0.6 0.3 0.4 0.1 0.1 0.2 0.1 0.0 0.5 2.0 1.8 1.9 2.0 1.8 1.1 1.4 0.6 0.4 0.6 0.4 0.4 0.3 0.2
nan 0.1 nan 0.0 nan nan 0.0 0.0 0.0 0.0 0.2 0.4 0.4 0.4 0.6 1.4 1.2 1.0 2.3 2.0 2.6 1.9 0.3 0.5 0.9 1.1 2.9 1.2 1.6 2.3 1.1 3.6 0.8 0.6 0.4 0.3 0.1 0.0
nan 0.0 0.0 0.0 0.1 0.0 0.0 0.0 0.0 0.0 0.4 0.4 0.9 1.2 1.4 1.9 2.2 2.1 3.3 4.1 5.5 4.0 3.9 2.5 0.5 0.2 1.0 1.0 4.9 1.6 1.7 1.8 1.2 1.1 1.1 1.2 0.4 0.1
0.0 0.0 0.1 0.1 0.1 0.0 0.0 0.0 0.1 0.3 0.4 0.9 1.1 1.3 2.4 3.5 4.2 5.3 5.4 5.9 6.8 4.3 4.5 4.4 4.8 5.5 3.7 2.3 1.8 2.6 2.0 2.2 1.9 0.8 0.7 2.2 1.2 0.2
0.0 0.3 0.3 0.3 0.3 0.3 0.5 0.7 1.1 0.6 0.6 2.1 2.6 3.5 4.1 4.5 4.9 6.0 6.2 5.4 5.6 4.3 4.7 4.4 8.2 9.8 13.0 9.9 2.2 nan 6.1 3.4 3.0 2.5 0.7 1.0 1.5 0.5
0.3 0.4 0.4 0.4 0.4 0.7 1.0 1.7 1.8 1.8 2.5 2.8 3.5 4.7 6.3 7.4 8.1 7.6 6.1 9.1 6.2 6.3 6.5 5.7 8.8 11.9 15.9 12.9 9.9 4.0 nan 3.3 2.4 2.8 3.1 0.7 0.3 nan
0.3 0.4 0.3 0.5 0.7 0.9 1.4 2.3 2.2 4.4 6.0 7.3 6.2 8.5 7.4 8.1 7.4 6.2 5.4 4.3 nan 7.2 10.6 8.0 5.5 nan 7.9 6.8 9.9 2.7 1.9 nan 0.7 2.7 2.7 2.6 2.0 0.6
0.3 0.6 0.6 0.8 1.2 1.8 3.0 3.7 5.7 6.0 7.1 6.2 7.0 7.3 6.7 6.6 8.2 7.1 4.6 8.0 5.0 5.6 8.4 6.4 5.3 7.4 10.9 9.8 8.3 4.1 1.9 0.8 nan nan nan nan 6.9 11.8
0.7 1.1 1.7 1.9 2.1 3.0 4.2 5.7 6.2 6.0 6.2 7.7 7.8 7.3 7.5 10.1 4.3 4.3 5.2 4.9 6.6 7.8 6.1 7.0 6.0 5.9 6.4 8.2 10.7 6.5 3.8 2.4 1.4 1.8 1.5 nan nan nan
Water_Equivalent
0.00 0.00 0.00 0.00 0.00 0.00 0.00 0.00 0.00 0.00 0.00 0.00 0.00 0.00 0.00 0.00 0.00 0.00 0.00 nan nan nan nan nan nan nan nan nan nan nan nan nan nan nan nan nan nan nan
0.00 0.00 0.00 0.00 0.00 0.00 0.00 0.00 0.00 0.00 0.00 0.00 0.00 0.00 0.00 0.00 0.00 0.00 0.00 nan nan nan nan nan nan nan nan nan nan nan nan nan nan nan nan nan nan nan
0.00 0.00 0.00 0.00 0.00 0.00 0.00 0.00 0.00 0.00 0.00 0.00 0.00 0.00 0.00 0.00 0.00 0.00 0.00 0.00 0.00 nan nan nan nan nan nan nan nan nan nan nan nan nan nan nan nan nan
0.00 0.00 0.00 0.00 0.00 0.00 0.00 0.00 0.00 0.00 0.00 0.00 0.00 0.00 0.00 0.00 0.00 0.00 0.00 0.00 0.00 nan nan nan nan nan nan nan nan nan nan nan nan nan nan nan nan nan
0.00 0.00 0.00 0.00 0.00 0.00 0.00 0.00 0.00 0.00 0.00 0.00 0.00 0.00 0.00 0.00 0.00 0.00 0.00 0.00 0.00 nan nan nan nan nan nan nan nan nan nan nan nan nan nan nan nan nan
0.00 0.00 0.00 0.00 0.00 0.00 0.00 0.00 0.00 0.00 0.00 0.00 0.00 0.00 0.00 0.00 0.00 0.00 0.00 0.00 0.00 0.00 nan nan nan nan nan nan nan nan nan nan nan nan nan nan nan nan
0.00 0.00 0.00 nan nan nan 0.00 0.00 0.00 0.00 0.00 0.00 0.00 0.01 0.00 0.00 0.00 0.00 0.00 0.00 0.00 0.00 0.00 0.00 0.00 0.00 0.00 nan nan nan nan nan nan nan nan nan nan nan
0.00 0.00 0.00 0.00 0.00 nan nan nan nan 0.00 0.00 0.01 0.01 0.00 0.00 0.00 0.00 0.00 0.00 0.07 0.06 0.00 0.00 0.00 0.00 0.00 0.00 0.00 nan nan nan nan nan nan nan nan nan nan
0.00 0.00 0.00 0.00 nan 0.00 nan nan nan nan nan 0.00 0.00 0.00 0.00 0.00 0.00 0.00 0.00 0.04 0.01 0.00 0.00 0.00 0.00 0.00 0.00 0.00 nan nan nan nan nan nan nan nan nan nan
0.00 0.00 0.00 0.00 0.00 0.00 0.00 0.00 0.00 0.00 0.00 0.00 0.00 0.00 0.00 0.00 0.00 0.00 0.00 0.00 0.00 0.00 0.00 0.11 0.00 0.00 0.00 0.00 nan nan nan nan nan nan nan nan nan nan
0.00 0.00 0.00 0.00 nan nan 0.00 0.00 0.00 0.00 nan nan nan nan nan nan nan 0.00 0.08 0.12 0.08 0.01 0.00 0.06 0.04 0.06 0.03 0.00 0.00 nan nan nan nan nan nan nan nan nan
0.00 0.00 nan 0.00 nan nan 0.00 0.00 0.00 0.00 0.00 0.00 0.00 0.00 nan nan nan 0.00 0.08 0.23 0.24 0.20 0.04 0.20 0.12 0.13 0.31 0.08 0.07 0.00 0.00 nan nan nan nan nan nan 0.00
0.00 0.00 0.00 nan nan nan nan 0.00 0.00 0.00 0.00 0.00 0.00 0.00 0.00 0.00 0.00 0.01 0.00 0.23 0.58 0.39 0.05 0.29 0.54 0.22 0.29 0.23 0.13 0.09 0.05 0.02 0.01 0.02 nan nan nan 0.00
0.00 0.00 0.00 nan nan nan nan nan nan nan 0.00 0.00 0.05 0.11 0.16 0.18 0.14 0.11 0.01 0.05 0.08 0.16 0.02 0.03 1.89 0.45 0.76 0.49 0.29 0.18 0.15 0.11 0.15 0.20 0.15 nan nan nan
0.00 0.00 nan nan nan nan nan nan nan 0.00 0.01 0.12 0.17 0.25 0.23 0.25 0.12 0.16 0.04 0.04 0.07 0.04 0.01 0.21 0.77 0.71 0.73 0.75 0.59 0.35 0.46 0.25 0.17 0.23 0.15 0.15 0.14 0.08
nan 0.05 nan 0.00 nan nan 0.00 0.00 0.01 0.00 0.05 0.12 0.15 0.14 0.22 0.47 0.40 0.36 0.75 0.68 0.85 0.62 0.13 0.21 0.34 0.45 1.00 0.42 0.55 0.60 0.38 1.04 0.33 0.24 0.18 0.14 0.05 0.00
nan 0.00 0.00 0.00 0.03 0.00 0.00 0.00 0.00 0.00 0.13 0.14 0.28 0.35 0.45 0.59 0.67 0.69 1.01 1.22 1.56 1.06 0.90 0.66 0.16 0.08 0.31 0.34 1.15 0.44 0.42 0.48 0.43 0.44 0.36 0.42 0.17 0.04
0.00 0.00 0.04 0.05 0.05 0.00 0.00 0.01 0.02 0.11 0.14 0.28 0.33 0.39 0.70 0.96 1.12 1.37 1.47 1.53 1.58 1.05 1.08 0.98 0.99 1.10 0.89 0.59 0.54 0.65 0.53 0.59 0.60 0.31 0.24 0.60 0.40 0.07
0.00 0.10 0.11 0.10 0.10 0.11 0.15 0.21 0.32 0.20 0.19 0.68 0.77 0.99 1.09 1.15 1.24 1.37 1.40 1.24 1.20 1.00 1.07 0.94 1.47 1.70 1.75 1.22 0.44 nan 1.36 0.78 0.72 0.58 0.21 0.33 0.49 0.22
0.11 0.14 0.16 0.14 0.13 0.21 0.27 0.46 0.50 0.50 0.70 0.80 0.95 1.21 1.58 1.78 1.78 1.52 1.23 1.49 1.17 1.23 1.22 1.19 1.69 2.20 2.82 2.23 1.61 0.78 nan 0.80 0.57 0.62 0.74 0.19 0.11 nan
0.12 0.14 0.11 0.16 0.21 0.30 0.42 0.64 0.59 1.10 1.49 1.84 1.56 1.96 1.72 1.84 1.49 1.19 1.02 0.80 nan 1.20 1.41 1.08 1.14 nan 2.06 1.53 1.47 0.49 0.43 nan 0.14 0.67 0.67 0.57 0.45 0.17
0.11 0.18 0.18 0.25 0.36 0.52 0.85 1.06 1.49 1.53 1.60 1.42 1.53 1.61 1.49 1.43 1.56 1.18 0.79 1.17 0.76 0.89 1.21 1.21 1.07 1.47 1.96 1.61 1.17 0.54 0.36 0.22 nan nan nan nan 1.50 2.05
0.22 0.28 0.43 0.50 0.60 0.80 1.13 1.43 1.57 1.49 1.44 1.74 1.74 1.53 1.44 1.69 0.85 0.84 0.86 0.81 0.99 1.09 0.94 0.97 0.91 0.98 1.05 1.30 1.49 0.89 0.48 0.37 0.31 0.41 0.40 nan nan nan
SL_Ratio
nan nan nan nan nan nan nan nan nan nan nan nan nan nan nan nan nan nan nan nan nan nan nan nan nan nan nan nan nan nan nan nan nan nan nan nan nan nan
nan nan nan nan nan nan nan nan nan nan nan nan nan nan nan nan nan nan nan nan nan nan nan nan nan nan nan nan nan nan nan nan nan nan nan nan nan nan
nan nan nan nan nan nan nan nan nan nan nan nan nan nan nan nan nan nan nan nan nan nan nan nan nan nan nan nan nan nan nan nan nan nan nan nan nan nan
nan nan nan nan nan nan nan nan nan nan nan nan nan nan nan nan nan nan nan nan nan nan nan nan nan nan nan nan nan nan nan nan nan nan nan nan nan nan
nan nan nan nan nan nan nan nan nan nan nan nan nan nan nan nan nan nan nan nan nan nan nan nan nan nan nan nan nan nan nan nan nan nan nan nan nan nan
nan nan nan nan nan nan nan nan nan nan nan nan nan nan nan nan nan nan nan nan nan nan nan nan nan nan nan nan nan nan nan nan nan nan nan nan nan nan
nan nan nan nan nan nan nan nan nan nan nan nan nan 2.2 1.7 nan nan nan nan nan nan nan nan nan nan nan nan nan nan nan nan nan nan nan nan nan nan nan
nan nan nan nan nan nan nan nan nan nan nan 2.7 2.6 nan nan nan nan nan 3.3 2.5 2.5 nan nan nan nan nan nan nan nan nan nan nan nan nan nan nan nan nan
nan nan nan nan nan nan nan nan nan nan nan nan nan nan nan nan nan 3.0 nan 2.5 2.4 nan nan nan nan nan nan nan nan nan nan nan nan nan nan nan nan nan
nan nan nan nan nan nan nan nan nan nan nan nan nan nan nan nan nan nan nan nan nan nan nan 2.5 nan nan nan nan nan nan nan nan nan nan nan nan nan nan
nan nan nan nan nan nan nan nan nan nan nan nan nan nan nan nan nan 4.0 2.5 2.5 2.5 2.6 nan 2.5 2.5 2.5 2.6 nan nan nan nan nan nan nan nan nan nan nan
nan nan nan nan nan nan nan nan nan nan nan nan nan nan nan nan nan nan 2.5 2.5 2.5 2.5 2.5 2.5 2.5 2.5 2.5 2.5 2.5 2.5 nan nan nan nan nan nan nan nan
nan nan nan nan nan nan nan nan nan nan nan nan nan nan nan nan nan 2.3 nan 2.5 2.5 2.5 2.5 2.5 2.5 2.5 2.5 2.6 2.5 2.5 2.5 2.5 2.4 2.5 nan nan nan nan
nan nan nan nan nan nan nan nan nan nan nan nan 2.5 2.5 2.5 2.5 2.5 2.5 2.6 2.5 2.5 2.5 2.6 2.5 2.6 2.6 2.7 3.0 2.9 2.6 2.7 2.5 2.5 2.5 2.5 nan nan nan
nan nan nan nan nan nan nan nan nan 2.9 2.3 2.6 2.5 2.5 2.5 2.5 2.5 2.5 2.5 2.5 2.5 2.5 2.5 2.5 2.5 2.5 2.7 2.7 3.1 3.1 3.0 2.5 2.5 2.5 2.5 2.5 2.5 2.5
nan 2.5 nan nan nan nan nan nan 2.5 nan 2.8 2.9 2.9 2.6 2.6 2.9 2.9 2.8 3.1 3.0 3.0 3.2 2.6 2.5 2.5 2.5 2.9 2.9 2.9 3.8 2.9 3.4 2.5 2.5 2.5 2.5 2.5 nan
nan nan nan nan 2.4 nan nan 0.0 nan 2.5 3.0 2.9 3.3 3.4 3.2 3.2 3.3 3.1 3.3 3.4 3.6 3.8 4.3 3.8 3.1 2.9 3.1 3.0 4.3 3.6 4.0 3.8 2.7 2.5 3.1 2.9 2.5 2.5
5.0 nan 2.6 2.6 2.7 nan 2.9 3.2 3.2 2.7 2.9 3.1 3.3 3.3 3.5 3.6 3.7 3.9 3.7 3.9 4.3 4.1 4.1 4.5 4.9 5.0 4.2 3.8 3.4 4.1 3.8 3.8 3.2 2.7 2.7 3.7 3.1 2.5
6.7 2.7 2.8 2.8 2.8 2.8 3.2 3.4 3.6 2.9 2.9 3.1 3.4 3.5 3.7 3.9 4.0 4.4 4.5 4.3 4.6 4.3 4.4 4.7 5.6 5.8 7.4 8.1 5.0 nan 4.4 4.3 4.2 4.3 3.4 3.2 3.1 2.5
2.7 2.8 2.8 2.8 2.9 3.2 3.5 3.8 3.7 3.7 3.6 3.5 3.7 3.9 4.0 4.2 4.6 5.0 5.0 6.1 5.3 5.1 5.3 4.8 5.2 5.4 5.6 5.8 6.1 5.1 nan 4.2 4.2 4.5 4.2 3.5 2.8 nan
2.8 2.8 2.7 2.9 3.1 3.1 3.4 3.5 3.7 4.0 4.0 4.0 4.0 4.3 4.3 4.4 4.9 5.2 5.3 5.4 nan 5.9 7.5 7.4 4.8 nan 3.8 4.5 6.7 5.6 4.3 nan 4.8 4.1 4.0 4.6 4.4 3.7
3.1 3.4 3.4 3.3 3.3 3.4 3.5 3.5 3.9 3.9 4.4 4.4 4.6 4.5 4.5 4.6 5.2 6.0 5.9 6.9 6.6 6.3 6.9 5.3 4.9 5.0 5.6 6.1 7.1 7.7 5.2 3.8 nan nan nan nan 4.6 5.7
3.3 3.9 4.0 3.7 3.6 3.7 3.7 4.0 3.9 4.0 4.3 4.4 4.5 4.7 5.2 6.0 5.1 5.2 6.1 6.1 6.6 7.2 6.5 7.3 6.5 6.0 6.0 6.3 7.2 7.2 7.9 6.4 4.6 4.5 3.7 nan nan nan